COSMOS 2491 DEB, 45130

Orbit data source: Space-Track

COSMOS 2491 DEB, 45130 is space debris in LEO originally from a launch on Wed, 25 Dec 2013 UTC launched from the Plesetsk Missile And Space Complex (PKMTR). Debris objects in space refer to the collection of defunct objects orbiting the Earth. Examples of debris include non-operational satellites, rocket bodies, and fragments generated from explosions, collisions, or faulty payload assembly.

Loading next visibility...
Identifier
45130, 2013-076AC
Orbit
LEO
Country
Flag of CISCIS
Related business
Manufacturer
TsNIIKhM
Mission
Spacecraft
Bus & Motor
Unknown
Mass
Unknown
Launch date (UTC)
2013-12-25 (12 years ago)
Launch vehicle
Unknown
Launch site
Plesetsk Missile And Space Complex (PKMTR)
Object type
Payload
Rocket body
Debris
Shape & HBR
Unknown shape, 0.1 m
Radar Cross Section
Small (<0.1 m²)

Expand to show TLE details & history
Last TLE update: 2 days ago

TLE from 2 days ago
0 COSMOS 2491 DEB
1 45130U 13076AC  25339.39614117  .00003500  00000-0  16837-1 0  9998
2 45130  82.4453 230.1854 0128280 231.4103 127.5447 12.70807673270065
Epoch: 2025-12-05T09:30Z
TLE epoch observation values (Epoch: 2025-12-05T09:30:26.597Z)
Latitude
-0.00005°
Longitude
13.13574°
Altitude
1,442.83 km
Speed
7.112 km/s
True Right ascension
15h 20m 44s
True Declination
0° 00' 00"
Sunlit
Object was in daylight at epoch
Visualization orbit readout
Latitude
Unknown
Longitude
Unknown
Altitude
Unknown
Speed
Unknown
Apparent Right ascension
Unknown
Apparent Declination
Unknown
Sunlit
N/A
Visualization observer readout
Local Sidereal Time
08:55:11
Azimuth
Unknown
Elevation
Unknown
Doppler factor
Unknown
Orbital elements
Apogee altitude
1,475.434 km
Perigee altitude
1,276.495 km
Semi-major axis
7,754.102 km
Eccentricity
0.01283
Inclination
82.4453°
RAAN
230.1854°
Arg. of periapsis
231.4103°
True anomaly
128.69885°
Mean anomaly
127.5447°
Eccentric anomaly
128.12291°
Mean motion
3.17867 °/min
Orbital period
113.25 mins
BSTAR
0.016837
Loading maneuver chart data...
Computing Atmospheric mass density...
Loading historical data...
Loading historical data...
Loading historical data...
Loading historical data...
Loading historical data...
Loading historical data...
Loading historical data...

Documentation

Showing up to 5 results
|